Location: De Greiden
(52.9496°N, 5.9137°E)
Time: 15:59:55
(UTC+00:00)

Daily predictions for brighter satellites

Satellite Brightness Start Highest point End
(mag) Time Altitude Azimuth Time Altitude Azimuth Time Altitude Azimuth
COSMOS 2406 4.2 16:39:07 10° NNW 16:44:04 28° NE 16:48:59 10° E
Cosmos 1833 Rocket 3.7 16:41:23 10° NNW 16:46:02 26° NE 16:50:40 10° E
Cosmos 1354 Rocket 4.2 16:43:01 10° SSW 16:48:22 81° WNW 16:53:45 10° NNE
USA 229 DEB 4.1 16:41:51 10° NW 16:48:46 52° NNE 16:56:07 10° ESE
USA 229 4.1 16:41:57 10° NW 16:48:51 52° NNE 16:56:12 10° ESE
Cosmos 1626 2.5 16:45:37 10° SSW 16:49:18 66° WNW 16:52:59 10° N
CZ-4B R/B 3.0 16:48:30 10° NE 16:50:45 17° E 16:52:57 10° SE
Meteor 2-5 Rocket 3.7 16:47:39 10° S 16:53:12 86° ESE 16:58:46 10° NNE
X-37B 3.1 16:51:59 10° SSW 16:53:47 14° SSE 16:55:35 10° SE
NOSS 3-4 (A) 4.2 16:48:36 10° W 16:54:25 47° NNW 17:00:49 10° NE
Meteor 2-10 Rocket 3.6 16:48:55 10° N 16:54:25 65° ENE 16:59:40 10° SSE
NOSS 3-4 (C) 4.2 16:48:42 10° W 16:54:31 47° NNW 17:00:55 10° NE
Cosmos 2082 Rocket 3.5 16:52:14 10° NNW 16:56:36 22° NNE 17:00:57 10° E
RESURS DK-1 3.6 16:56:26 10° WSW 17:00:19 39° NW 17:04:15 10° NNE
AQUARIUS 4.3 16:56:42 10° SSE 17:01:12 85° WSW 17:05:44 10° NNW
NOSS 3-1 (A) 4.1 16:57:28 10° NW 17:04:17 55° NNE 17:12:21 10° ESE
NOAA 12 4.4 16:59:15 10° S 17:04:28 72° WSW 17:09:45 10° NNW
Cosmos 2058 Rocket 3.1 17:00:42 10° N 17:05:13 70° ENE 17:09:43 10° SSE
MOS 1 Rocket 4.2 17:02:03 10° NE 17:05:27 22° E 17:08:50 10° SE
SeaSat 1 3.1 17:02:24 10° NNE 17:07:14 55° NW 17:12:02 10° SW
Cosmos 158 Rocket 4.0 17:02:08 10° NNW 17:07:29 69° ENE 17:12:51 10° SE
Cosmos 1844 Rocket 3.2 17:03:21 10° S 17:08:36 41° ESE 17:13:52 10° NE
Cosmos 1726 Rocket 3.9 17:05:38 10° NNW 17:10:00 71° W 17:14:23 10° S
Nadezhda 4 Rocket 4.3 17:04:40 10° SSE 17:10:31 44° E 17:16:19 10° NNE
H-2A R/B 3.3 17:06:52 10° S 17:10:54 56° WSW 17:15:08 10° NNW
Meteor 1-24 Rocket 3.6 17:05:37 10° SSW 17:10:56 86° WNW 17:16:18 10° NNE
Cosmos 2227 Rocket 4.1 17:07:00 10° W 17:11:16 21° NNW 17:15:34 10° NNE
ATLAS 2AS CENTAUR R/B 3.5 17:04:13 10° WSW 17:11:59 54° NNW 17:19:28 10° NE
Aureole 3 3.1 17:11:39 10° N 17:14:58 42° ENE 17:17:53 10° SSE
Helios 1A Rocket 3.9 17:16:01 10° ESE 17:19:30 26° ENE 17:22:59 10° N
Cosmos 1626 Rocket 4.3 17:18:45 10° SSE 17:22:41 32° E 17:26:39 10° NNE
Cosmos 405 4.1 17:23:55 10° N 17:26:50 23° ENE 17:29:22 12° ESE
Cosmos 2278 Rocket 3.9 17:26:14 10° ESE 17:28:30 13° E 17:28:30 13° E
ATLAS 5 CENTAUR R/B 2.4 17:25:26 10° WSW 17:29:32 47° NNW 17:33:39 13° NE
USA 290 3.7 17:27:57 10° N 17:30:16 19° NE 17:30:16 19° NE
Okean 1-7 Rocket 3.6 17:26:19 10° S 17:30:50 68° E 17:35:24 10° NNE
Iridium 4 Rocket 4.1 17:26:28 10° N 17:31:41 37° ENE 17:36:31 10° SE
CZ-4B R/B 4.2 17:27:07 10° S 17:32:34 52° W 17:38:07 10° NNW
CSL-04 Rocket 4.2 17:28:06 10° SE 17:32:59 35° ENE 17:37:58 10° N
Lacrosse 5 3.5 17:28:42 10° WNW 17:33:17 35° SW 17:37:51 10° SSE
Cosmos 923 Rocket 4.1 17:28:13 10° NNW 17:33:37 86° WSW 17:38:56 10° SSE
USA 234 3.4 17:29:30 16° ENE 17:34:50 63° N 17:41:18 10° WNW
Cosmos 2297 Rocket 4.3 17:32:00 10° WNW 17:35:29 16° NNW 17:38:59 10° NNE
COSMO-SKYMED 1 2.7 17:32:10 10° NNE 17:36:26 51° E 17:40:40 10° S
Cosmos 1939 Rocket 3.2 17:35:02 10° S 17:39:07 70° WSW 17:43:10 10° NNW
Cosmos 1680 Rocket 3.4 17:34:11 10° NNW 17:39:28 84° ENE 17:44:42 10° SSE
Cosmos 1898 Rocket 4.2 17:35:44 10° SSE 17:40:21 32° ESE 17:43:15 19° NE
CZ-4C R/B 3.4 17:36:11 10° W 17:41:25 38° NNW 17:46:31 15° NE
Aureole 3 Rocket 3.0 17:39:06 10° N 17:41:53 31° ENE 17:44:56 10° SE
Meteor 2-8 Rocket 4.5 17:37:48 10° N 17:43:49 56° ENE 17:49:50 10° SSE
Cosmos 1553 Rocket 4.5 17:38:57 10° N 17:44:54 37° ENE 17:50:46 10° SE
Cosmos 2026 Rocket 4.3 17:41:02 10° SSE 17:46:41 40° E 17:52:27 10° NNE
ISS -3.1 17:45:00 10° SW 17:48:13 43° SSE 17:49:25 30° ESE
Feng Yun 1-1 Rocket 4.4 17:43:06 10° SSE 17:48:34 76° WSW 17:54:13 10° NNW
CZ-2D R/B 3.4 17:45:52 10° S 17:49:43 78° WSW 17:53:34 10° NNW
NOSS 2-1 (E) 4.4 17:47:28 10° S 17:49:50 21° SE 17:49:50 21° SE
ERS-2 2.5 17:50:26 28° NE 17:51:48 39° E 17:55:14 10° S
Cosmos 1455 2.7 17:49:16 10° NNW 17:53:03 62° W 17:56:50 10° S
IRS-1C Rocket 4.1 17:48:41 10° SSE 17:53:57 87° WSW 17:59:15 10° NNW
Cosmos 1340 3.1 17:50:39 10° SSE 17:54:06 36° E 17:54:46 33° ENE
H-2A R/B 2.0 17:49:10 10° SSE 17:54:09 64° ENE 17:59:18 10° N
Cosmos-2242 3.4 17:51:03 10° N 17:55:05 38° ENE 17:59:06 10° SE
Meteor 1-21 Rocket 4.1 17:50:07 10° S 17:55:36 70° E 18:01:11 10° NNE
NOAA 15 4.5 17:53:53 10° SSE 17:59:07 76° ENE 18:04:26 10° NNW
CZ-4 R/B 1.2 17:55:39 10° SSE 17:59:42 82° ENE 18:03:43 10° NNW
Cosmos 2263 Rocket 3.6 17:55:11 10° WSW 18:00:17 33° NW 18:05:24 10° NNE
SKYMED 3 4.5 17:56:08 10° NNE 18:00:31 84° ESE 18:04:53 10° SSW
TELKOM 3 4.0 17:58:22 10° WSW 18:00:26 35° S 18:00:26 35° S
H-2A R/B 3.2 17:56:59 10° N 18:01:15 45° WNW 18:05:24 10° SW
Cosmos 1602 Rocket 3.5 18:00:06 10° S 18:04:22 59° E 18:08:28 11° NNE
ARGOS 3.1 17:59:33 10° SE 18:04:49 59° ENE 18:10:07 10° N
COSMOS 2455 3.1 18:00:22 10° SW 18:06:22 67° NW 18:11:09 17° NE
Okean O Rocket 4.0 18:03:44 10° SSW 18:07:26 26° W 18:11:09 10° NW
PSLV R/B 4.0 18:06:05 22° NNE 18:08:37 55° E 18:12:45 10° S
USA 281 4.3 18:07:21 23° NE 18:08:47 25° NE 18:13:50 10° NNW
YAOGAN 1 2.5 18:04:35 10° SSE 18:08:54 87° E 18:13:17 10° NNW
S3M 4.4 18:03:24 10° N 18:09:05 38° ENE 18:12:25 22° ESE
Cosmos 1937 Rocket 3.9 18:04:18 10° S 18:09:13 40° ESE 18:10:47 32° ENE
Cosmos 1818 3.6 18:04:06 10° SW 18:09:33 86° NW 18:12:52 25° NE
CZ-2C R/B 3.4 18:10:30 31° E 18:10:37 31° E 18:15:33 10° SSE
Cosmos 2344 4.2 18:02:18 10° NW 18:11:10 87° NE 18:23:32 10° SE
Okean-O 2.6 18:07:06 10° SSE 18:11:32 86° WSW 18:16:01 10° NNW
Cosmos 2195 Rocket 4.4 18:06:56 10° S 18:13:14 70° E 18:19:32 10° NNE
Meteor 2-15 Rocket 4.5 18:08:03 10° N 18:14:06 54° ENE 18:20:07 10° SSE
CZ-2C R/B 3.8 18:11:21 10° S 18:16:42 59° W 18:22:22 10° NNW
Aureole 2 Rocket 3.9 18:14:14 10° WSW 18:17:01 30° NW 18:18:39 19° N
SJ 16-02 1.8 18:12:50 10° SW 18:17:12 62° WNW 18:20:35 17° NNE
Meteor 1-27 4.3 18:12:34 10° N 18:18:06 53° ENE 18:23:15 11° SSE
Cosmos 1812 Rocket 3.7 18:14:58 10° NNW 18:19:24 74° W 18:23:44 10° S
SJ-11-01 4.2 18:14:43 10° SSE 18:19:25 89° WSW 18:24:08 10° NNW
NOSS 3-1 (C) 4.4 18:13:35 10° NW 18:20:49 67° SW 18:29:16 10° SSE
CZ-4B R/B 2.5 18:20:18 12° N 18:23:10 42° WNW 18:26:19 10° SW
SKYMED 2 4.1 18:20:14 10° N 18:24:33 60° WNW 18:28:49 10° SSW
Cosmos 1428 Rocket 4.4 18:18:24 10° S 18:24:39 70° E 18:30:57 10° NNE
SAR-Lupe-4 3.4 18:24:43 75° ESE 18:24:43 75° ESE 18:28:16 10° S
CSL-04 Debris 4.0 18:21:23 10° SSE 18:26:47 85° ENE 18:32:13 10° NNW
Cosmos 44 3.3 18:23:37 10° SSW 18:28:28 71° SE 18:29:51 47° ENE
COSMOS 2406 3.2 18:23:17 10° NNW 18:29:06 85° WSW 18:34:24 12° SSE
Cosmos 1703 3.5 18:25:38 10° SSW 18:29:30 69° WNW 18:32:02 21° N
X-37B 2.7 18:27:17 10° SW 18:29:27 20° S 18:29:27 20° S
Cosmos 1627 Rocket 4.4 18:24:16 10° S 18:30:28 81° E 18:36:48 10° NNE
Cosmos 1833 Rocket 2.6 18:25:05 10° NNW 18:30:45 88° ENE 18:34:40 21° SSE
SL-08 RB Rocket 3.5 18:32:25 38° SE 18:34:04 71° ENE 18:38:33 10° N
NOSS 2-2 (C) 4.5 18:34:01 10° NW 18:38:36 45° NNE 18:39:08 44° NE
NOSS 2-1 (C) 4.0 18:35:44 10° SW 18:37:54 37° SSW 18:37:54 37° SSW
BREEZE-M DEB (TANK) 4.1 18:37:24 10° WSW 18:38:32 23° SW 18:38:32 23° SW
USA 229 DEB 4.2 18:32:55 10° NW 18:40:05 66° SW 18:47:27 11° SSE
USA 229 4.2 18:33:02 10° NW 18:40:12 67° SW 18:47:25 11° SSE
Cosmos 990 Rocket 3.9 18:35:03 10° SSW 18:40:16 83° WNW 18:42:50 31° NNE
SAR-Lupe-1 4.2 18:41:10 71° WSW 18:41:10 71° WSW 18:44:33 10° SSW
Cosmos 2082 Rocket 2.1 18:36:05 10° NNW 18:41:49 66° NE 18:43:03 52° ESE
Cosmos 1092 Rocket 4.1 18:36:22 10° SSW 18:42:32 73° WNW 18:48:42 10° N
Cosmos 1844 4.1 18:37:49 10° SW 18:43:28 62° NW 18:47:06 23° NNE
MOS 1 Rocket 3.9 18:39:51 10° N 18:44:01 48° WNW 18:48:08 10° SW
NOSS 2-1 (D) 4.1 18:41:37 10° SW 18:43:40 35° SSW 18:43:40 35° SSW
Cosmos 1844 Rocket 3.6 18:47:01 10° WSW 18:52:29 47° NW 18:56:01 21° NNE
Helios 1A Rocket 4.1 18:50:32 10° S 18:54:29 42° W 18:58:28 10° NNW
NOSS 3-1 (A) 4.4 18:48:22 10° NW 18:55:37 65° SW 19:02:46 15° SSE
Cosmos 2227 Rocket 4.4 18:55:17 10° NNW 18:57:40 13° N 18:59:16 11° NNE
MOS 1 4.4 18:59:19 58° NE 18:59:19 58° NE 19:04:28 10° N
Ariane Rocket 3.7 19:00:51 40° N 19:00:51 40° N 19:04:15 10° N
NOSS 2-2 (E) 4.2 18:58:00 10° NW 19:02:59 64° NE 19:03:03 64° NE
ATLAS 2AS CENTAUR R/B 3.8 18:57:20 10° WNW 19:04:32 37° N 19:06:55 31° NNE
Cosmos 858 Rocket 4.5 18:59:55 10° SSW 19:05:14 84° WNW 19:05:49 71° N
Cosmos 2278 Rocket 2.6 19:06:13 10° SSW 19:10:25 49° S 19:10:25 49° S
ATLAS 5 CENTAUR R/B 3.4 19:11:23 10° WNW 19:15:11 26° N 19:15:11 26° N
USA 234 3.1 19:16:51 69° E 19:17:40 81° NNE 19:24:14 10° WNW
MetOp-A 4.1 19:21:09 78° W 19:21:09 78° W 19:26:23 10° NNW
Cosmos 2297 Rocket 4.4 19:19:39 10° NNW 19:22:06 13° N 19:22:14 13° N
Cosmos 1898 Rocket 4.3 19:17:09 10° SW 19:22:15 50° WNW 19:23:35 40° NNW
ISS -0.8 19:21:29 10° W 19:22:23 17° W 19:22:23 17° W
ERS-2 4.4 19:24:59 22° WNW 19:25:09 22° WNW 19:28:01 10° WSW
CZ-4C R/B 3.6 19:25:53 10° NW 19:31:33 35° N 19:31:42 35° NNE
Cosmos 909 Rocket 4.5 19:25:24 10° NW 19:30:53 52° NNE 19:30:53 52° NNE
H-2A R/B 4.3 19:30:04 10° SW 19:34:03 23° W 19:38:09 10° NW
Cosmos 2263 Rocket 4.5 19:43:00 10° NW 19:46:03 15° NNW 19:47:31 13° N
CZ-2C R/B 3.5 19:51:59 49° W 19:51:59 49° W 19:56:36 10° SW
USA 281 3.8 19:54:12 48° N 19:54:12 48° N 19:58:54 10° NNW
COSMOS 2455 4.4 19:48:19 10° W 19:53:24 27° NNW 19:54:18 26° N
SJ 16-02 4.1 19:54:33 10° WNW 19:56:44 13° NW 19:57:36 13° NNW
Cosmos 2082 Rocket 4.0 20:20:44 10° NW 20:24:57 27° W 20:24:57 27° W
ATLAS 2AS CENTAUR R/B 4.1 20:49:43 10° NW 20:54:21 34° NNW 20:54:21 34° NNW
